| time (UTC) | temp F | wind direction | speed MPH | gust MPH | rain 1hr in | rain 24hr in | rain mn in | humidity % | barometer mb |
| 20260506163317 | 55 | 130 | 8.0 | 0.0 | 0.00 | 0.00 | 0.00 | 82 | 1016.0 |
| 20260506161817 | 59 | 120 | 9.0 | 0.0 | 0.00 | 0.00 | 0.00 | 72 | 1016.0 |
| 20260506160317 | 59 | 120 | 9.0 | 0.0 | 0.00 | 0.00 | 0.00 | 72 | 1016.0 |
| 20260506154818 | 61 | 120 | 9.0 | 0.0 | 0.00 | 0.00 | 0.00 | 68 | 1016.0 |
| 20260506153317 | 61 | 120 | 9.0 | 0.0 | 0.00 | 0.00 | 0.00 | 68 | 1016.0 |
| 20260506151817 | 63 | 130 | 9.0 | 0.0 | 0.00 | 0.00 | 0.00 | 59 | 1016.0 |
| 20260506150323 | 63 | 130 | 9.0 | 0.0 | 0.00 | 0.00 | 0.00 | 59 | 1016.0 |
| 20260506144817 | 63 | 120 | 10.0 | 0.0 | 0.00 | 0.00 | 0.00 | 59 | 1016.0 |
| 20260506143329 | 63 | 120 | 10.0 | 0.0 | 0.00 | 0.00 | 0.00 | 59 | 1016.0 |
| 20260506141817 | 63 | 130 | 10.0 | 0.0 | 0.00 | 0.00 | 0.00 | 59 | 1016.0 |
| 20260506140432 | 63 | 130 | 10.0 | 0.0 | 0.00 | 0.00 | 0.00 | 59 | 1016.0 |
| 20260506134842 | 64 | 130 | 10.0 | 0.0 | 0.00 | 0.00 | 0.00 | 56 | 1016.0 |
| 20260506133317 | 64 | 130 | 10.0 | 0.0 | 0.00 | 0.00 | 0.00 | 56 | 1016.0 |
| 20260506131817 | 66 | 130 | 9.0 | 0.0 | 0.00 | 0.00 | 0.00 | 56 | 1016.0 |
| 20260506130326 | 66 | 130 | 9.0 | 0.0 | 0.00 | 0.00 | 0.00 | 56 | 1016.0 |
| 20260506124817 | 66 | 130 | 9.0 | 0.0 | 0.00 | 0.00 | 0.00 | 52 | 1016.0 |
| 20260506123317 | 66 | 130 | 9.0 | 0.0 | 0.00 | 0.00 | 0.00 | 52 | 1016.0 |
| 20260506121817 | 66 | 130 | 10.0 | 0.0 | 0.00 | 0.00 | 0.00 | 52 | 1017.0 |
| 20260506120317 | 66 | 130 | 10.0 | 0.0 | 0.00 | 0.00 | 0.00 | 52 | 1017.0 |
| 20260506114817 | 66 | 120 | 10.0 | 0.0 | 0.00 | 0.00 | 0.00 | 52 | 1017.0 |
| 20260506113317 | 66 | 120 | 10.0 | 0.0 | 0.00 | 0.00 | 0.00 | 52 | 1017.0 |
| 20260506111817 | 66 | 140 | 9.0 | 0.0 | 0.00 | 0.00 | 0.00 | 56 | 1017.0 |
| 20260506110317 | 66 | 140 | 9.0 | 0.0 | 0.00 | 0.00 | 0.00 | 56 | 1017.0 |
| 20260506104817 | 66 | 140 | 10.0 | 0.0 | 0.00 | 0.00 | 0.00 | 52 | 1017.0 |
| 20260506103317 | 66 | 140 | 10.0 | 0.0 | 0.00 | 0.00 | 0.00 | 52 | 1017.0 |
| 20260506101818 | 64 | 160 | 10.0 | 0.0 | 0.00 | 0.00 | 0.00 | 52 | 1017.0 |
| 20260506100317 | 64 | 160 | 10.0 | 0.0 | 0.00 | 0.00 | 0.00 | 52 | 1017.0 |
| 20260506094817 | 64 | 130 | 11.0 | 0.0 | 0.00 | 0.00 | 0.00 | 52 | 1017.0 |
| 20260506093317 | 64 | 130 | 11.0 | 0.0 | 0.00 | 0.00 | 0.00 | 52 | 1017.0 |
| 20260506091817 | 64 | 150 | 10.0 | 0.0 | 0.00 | 0.00 | 0.00 | 56 | 1017.0 |
| 20260506090317 | 64 | 150 | 10.0 | 0.0 | 0.00 | 0.00 | 0.00 | 56 | 1017.0 |
| 20260506084817 | 64 | 130 | 10.0 | 0.0 | 0.00 | 0.00 | 0.00 | 52 | 1017.0 |
| 20260506083317 | 64 | 130 | 10.0 | 0.0 | 0.00 | 0.00 | 0.00 | 52 | 1017.0 |
| 20260506081813 | 63 | 120 | 10.0 | 0.0 | 0.00 | 0.00 | 0.00 | 56 | 1017.0 |
| 20260506080317 | 63 | 120 | 10.0 | 0.0 | 0.00 | 0.00 | 0.00 | 56 | 1017.0 |
| 20260506073317 | 63 | 120 | 7.0 | 0.0 | 0.00 | 0.00 | 0.00 | 49 | 1017.0 |
| 20260506071817 | 61 | 150 | 5.0 | 0.0 | 0.00 | 0.00 | 0.00 | 55 | 1016.0 |
| 20260506070317 | 61 | 150 | 5.0 | 0.0 | 0.00 | 0.00 | 0.00 | 55 | 1016.0 |
| 20260506061817 | 57 | 150 | 8.0 | 0.0 | 0.00 | 0.00 | 0.00 | 63 | 1016.0 |
| 20260506060318 | 57 | 150 | 8.0 | 0.0 | 0.00 | 0.00 | 0.00 | 63 | 1016.0 |
| 20260506050331 | 55 | 260 | 3.0 | 0.0 | 0.00 | 0.00 | 0.00 | 59 | 1016.0 |
| 20260506044833 | 54 | 270 | 3.0 | 0.0 | 0.00 | 0.00 | 0.00 | 58 | 1015.0 |
| 20260506043321 | 54 | 270 | 3.0 | 0.0 | 0.00 | 0.00 | 0.00 | 58 | 1015.0 |
| 20260506041818 | 48 | 270 | 6.0 | 0.0 | 0.00 | 0.00 | 0.00 | 71 | 1015.0 |
| 20260506040317 | 48 | 270 | 6.0 | 0.0 | 0.00 | 0.00 | 0.00 | 71 | 1015.0 |
| 20260506034817 | 45 | 260 | 6.0 | 0.0 | 0.00 | 0.00 | 0.00 | 76 | 1015.0 |
| 20260506033317 | 45 | 260 | 6.0 | 0.0 | 0.00 | 0.00 | 0.00 | 76 | 1015.0 |
| 20260506031817 | 43 | 280 | 7.0 | 0.0 | 0.00 | 0.00 | 0.00 | 81 | 1015.0 |
| 20260506030316 | 43 | 280 | 7.0 | 0.0 | 0.00 | 0.00 | 0.00 | 81 | 1015.0 |
| 20260506024817 | 41 | 270 | 7.0 | 0.0 | 0.00 | 0.00 | 0.00 | 87 | 1015.0 |
| 20260506023317 | 41 | 270 | 7.0 | 0.0 | 0.00 | 0.00 | 0.00 | 87 | 1015.0 |
| 20260506021817 | 43 | 280 | 7.0 | 0.0 | 0.00 | 0.00 | 0.00 | 81 | 1015.0 |
| 20260506020317 | 43 | 280 | 7.0 | 0.0 | 0.00 | 0.00 | 0.00 | 81 | 1015.0 |
| 20260506014816 | 43 | 280 | 8.0 | 0.0 | 0.00 | 0.00 | 0.00 | 81 | 1015.0 |
| 20260506013317 | 43 | 280 | 8.0 | 0.0 | 0.00 | 0.00 | 0.00 | 81 | 1015.0 |
| 20260506011817 | 43 | 280 | 8.0 | 0.0 | 0.00 | 0.00 | 0.00 | 81 | 1015.0 |
| 20260506010317 | 43 | 280 | 8.0 | 0.0 | 0.00 | 0.00 | 0.00 | 81 | 1015.0 |
| 20260506004817 | 45 | 280 | 8.0 | 0.0 | 0.00 | 0.00 | 0.00 | 81 | 1015.0 |
| 20260506003433 | 45 | 280 | 8.0 | 0.0 | 0.00 | 0.00 | 0.00 | 81 | 1015.0 |
| 20260506001817 | 45 | 260 | 7.0 | 0.0 | 0.00 | 0.00 | 0.00 | 81 | 1015.0 |
| 20260506000318 | 45 | 260 | 7.0 | 0.0 | 0.00 | 0.00 | 0.00 | 81 | 1015.0 |
| 20260505234817 | 45 | 240 | 6.0 | 0.0 | 0.00 | 0.00 | 0.00 | 81 | 1015.0 |
| 20260505233316 | 45 | 240 | 6.0 | 0.0 | 0.00 | 0.00 | 0.00 | 81 | 1015.0 |
| 20260505231817 | 45 | 230 | 7.0 | 0.0 | 0.00 | 0.00 | 0.00 | 81 | 1015.0 |
| 20260505230317 | 45 | 230 | 7.0 | 0.0 | 0.00 | 0.00 | 0.00 | 81 | 1015.0 |
| 20260505224817 | 43 | 230 | 6.0 | 0.0 | 0.00 | 0.00 | 0.00 | 87 | 1016.0 |
| 20260505223317 | 43 | 230 | 6.0 | 0.0 | 0.00 | 0.00 | 0.00 | 87 | 1016.0 |
| 20260505221814 | 43 | 240 | 6.0 | 0.0 | 0.00 | 0.00 | 0.00 | 87 | 1016.0 |
| 20260505220317 | 43 | 240 | 6.0 | 0.0 | 0.00 | 0.00 | 0.00 | 87 | 1016.0 |
| 20260505214818 | 46 | 240 | 6.0 | 0.0 | 0.00 | 0.00 | 0.00 | 76 | 1016.0 |
| 20260505213317 | 46 | 240 | 6.0 | 0.0 | 0.00 | 0.00 | 0.00 | 76 | 1016.0 |
| 20260505211817 | 45 | 220 | 6.0 | 0.0 | 0.00 | 0.00 | 0.00 | 87 | 1016.0 |
| 20260505210317 | 45 | 220 | 6.0 | 0.0 | 0.00 | 0.00 | 0.00 | 87 | 1016.0 |
| 20260505204819 | 46 | 200 | 5.0 | 0.0 | 0.00 | 0.00 | 0.00 | 87 | 1016.0 |
| 20260505203316 | 46 | 200 | 5.0 | 0.0 | 0.00 | 0.00 | 0.00 | 87 | 1016.0 |
| 20260505201848 | 45 | 190 | 7.0 | 0.0 | 0.00 | 0.00 | 0.00 | 87 | 1016.0 |
| 20260505200317 | 45 | 190 | 7.0 | 0.0 | 0.00 | 0.00 | 0.00 | 87 | 1016.0 |
| 20260505194817 | 46 | 180 | 8.0 | 0.0 | 0.00 | 0.00 | 0.00 | 87 | 1016.0 |
| 20260505193317 | 46 | 180 | 8.0 | 0.0 | 0.00 | 0.00 | 0.00 | 87 | 1016.0 |
| 20260505191817 | 46 | 170 | 7.0 | 0.0 | 0.00 | 0.00 | 0.00 | 82 | 1016.0 |
| 20260505190316 | 46 | 170 | 7.0 | 0.0 | 0.00 | 0.00 | 0.00 | 82 | 1016.0 |
| 20260505184818 | 46 | 150 | 7.0 | 0.0 | 0.00 | 0.00 | 0.00 | 82 | 1016.0 |
| 20260505183317 | 46 | 150 | 7.0 | 0.0 | 0.00 | 0.00 | 0.00 | 82 | 1016.0 |
| 20260505181817 | 48 | 160 | 6.0 | 0.0 | 0.00 | 0.00 | 0.00 | 82 | 1016.0 |
| 20260505180317 | 48 | 160 | 6.0 | 0.0 | 0.00 | 0.00 | 0.00 | 82 | 1016.0 |
| 20260505174814 | 50 | 140 | 7.0 | 0.0 | 0.00 | 0.00 | 0.00 | 82 | 1015.0 |
| 20260505173317 | 50 | 140 | 7.0 | 0.0 | 0.00 | 0.00 | 0.00 | 82 | 1015.0 |
| 20260505171817 | 52 | 130 | 7.0 | 0.0 | 0.00 | 0.00 | 0.00 | 82 | 1015.0 |
| 20260505170317 | 52 | 130 | 7.0 | 0.0 | 0.00 | 0.00 | 0.00 | 82 | 1015.0 |
| 20260505164817 | 55 | 120 | 9.0 | 0.0 | 0.00 | 0.00 | 0.00 | 67 | 1015.0 |